GEC8818 UTDD-UBBB

Flight info

Callsign GEC8818
Flight time 2h 25m
Altitude 34000
Route SOPNO Q169 INDUD Z777 MANAT R226 AKRAM A477 BABUM A909 RODAR M11 AMOKU
Aircraft A321/M-SDE3FGHIRWY/LB1

Departure

Time 2026-04-26 15:31
Airport Dushanbe International Airport (UTDD)

Arrival

Time 2026-04-26 17:56
Airport Heydar Aliyev International Airport (UBBB)
Time Latitude Longitude Altitude Speed Heading
2026-04-26 15:09 38.54737 68.82507 2609 ft 0 kts 227°
2026-04-26 15:24 38.54731 68.82498 2604 ft 4 kts 227°
2026-04-26 15:25 38.54697 68.82450 2604 ft 7 kts 234°
2026-04-26 15:25 38.54685 68.82403 2604 ft 10 kts 265°
2026-04-26 15:25 38.54693 68.82262 2604 ft 12 kts 271°
2026-04-26 15:25 38.54694 68.82124 2604 ft 19 kts 270°
2026-04-26 15:26 38.54694 68.81949 2604 ft 19 kts 270°
2026-04-26 15:26 38.54695 68.81781 2604 ft 18 kts 270°
2026-04-26 15:26 38.54695 68.81619 2604 ft 18 kts 270°
2026-04-26 15:26 38.54695 68.81467 2604 ft 14 kts 264°
2026-04-26 15:27 38.54683 68.81341 2604 ft 14 kts 270°
2026-04-26 15:27 38.54683 68.81211 2603 ft 14 kts 270°
2026-04-26 15:27 38.54684 68.81083 2603 ft 14 kts 270°
2026-04-26 15:27 38.54684 68.80952 2603 ft 16 kts 270°
2026-04-26 15:28 38.54684 68.80800 2603 ft 17 kts 270°
2026-04-26 15:28 38.54685 68.80686 2603 ft 11 kts 270°
2026-04-26 15:28 38.54685 68.80585 2603 ft 11 kts 270°
2026-04-26 15:28 38.54686 68.80486 2603 ft 8 kts 270°
2026-04-26 15:29 38.54680 68.80410 2603 ft 8 kts 239°
2026-04-26 15:29 38.54622 68.80387 2603 ft 9 kts 181°
2026-04-26 15:29 38.54484 68.80401 2602 ft 10 kts 175°
2026-04-26 15:30 38.54373 68.80479 2602 ft 10 kts 93°
2026-04-26 15:30 38.54373 68.80595 2602 ft 22 kts 90°
2026-04-26 15:30 38.54373 68.81142 2602 ft 99 kts 90°
2026-04-26 15:31 38.54371 68.82307 2603 ft 161 kts 89°
2026-04-26 15:31 38.54376 68.85509 3649 ft 181 kts 90°
2026-04-26 15:31 38.54363 68.87060 4472 ft 173 kts 90°
2026-04-26 15:32 38.54350 68.89597 4990 ft 180 kts 90°
2026-04-26 15:32 38.54345 68.91818 5275 ft 194 kts 90°
2026-04-26 15:32 38.54342 68.93597 5462 ft 206 kts 90°
2026-04-26 15:33 38.54339 68.95468 5686 ft 218 kts 90°
2026-04-26 15:33 38.54335 68.97452 5914 ft 230 kts 90°
2026-04-26 15:33 38.54332 68.99590 6077 ft 248 kts 90°
2026-04-26 15:33 38.54327 69.01826 6351 ft 261 kts 90°
2026-04-26 15:34 38.54322 69.04198 6634 ft 274 kts 90°
2026-04-26 15:34 38.54267 69.06660 7094 ft 279 kts 99°
2026-04-26 15:34 38.53530 69.08919 7630 ft 280 kts 128°
2026-04-26 15:34 38.52048 69.10484 8217 ft 280 kts 154°
2026-04-26 15:35 38.50161 69.11076 8727 ft 284 kts 178°
2026-04-26 15:35 38.48164 69.11043 9267 ft 287 kts 180°
2026-04-26 15:35 38.46161 69.11005 9792 ft 291 kts 179°
2026-04-26 15:35 38.44139 69.10985 10364 ft 292 kts 179°
2026-04-26 15:36 38.42089 69.10977 10762 ft 300 kts 179°
2026-04-26 15:36 38.39964 69.10887 10995 ft 314 kts 188°
2026-04-26 15:36 38.37864 69.09905 11217 ft 329 kts 211°
2026-04-26 15:36 38.36166 69.07891 11447 ft 342 kts 234°
2026-04-26 15:37 38.35191 69.05122 11879 ft 348 kts 257°
2026-04-26 15:37 38.35036 69.02045 12397 ft 351 kts 270°
2026-04-26 15:37 38.35071 68.98924 12884 ft 354 kts 270°
2026-04-26 15:37 38.35096 68.95794 13367 ft 357 kts 269°
2026-04-26 15:38 38.35105 68.92638 13905 ft 358 kts 269°
2026-04-26 15:38 38.35106 68.89457 14420 ft 360 kts 270°
2026-04-26 15:38 38.35418 68.86332 14879 ft 363 kts 287°
2026-04-26 15:38 38.36585 68.83495 15376 ft 365 kts 307°
2026-04-26 15:39 38.38365 68.81194 15882 ft 366 kts 316°
2026-04-26 15:39 38.40251 68.78990 16321 ft 369 kts 316°
2026-04-26 15:39 38.42135 68.76783 16801 ft 371 kts 316°
2026-04-26 15:39 38.43409 68.75279 17121 ft 372 kts 316°
2026-04-26 15:40 38.45940 68.72267 17648 ft 375 kts 316°
2026-04-26 15:40 38.47845 68.69985 18063 ft 377 kts 315°
2026-04-26 15:40 38.49746 68.67704 18510 ft 379 kts 316°
2026-04-26 15:40 38.51666 68.65391 18907 ft 380 kts 315°
2026-04-26 15:41 38.53319 68.62798 19256 ft 380 kts 298°
2026-04-26 15:41 38.54194 68.59656 19655 ft 378 kts 279°
2026-04-26 15:41 38.54330 68.56293 20103 ft 377 kts 270°
2026-04-26 15:41 38.54319 68.52985 20453 ft 379 kts 269°
2026-04-26 15:42 38.54309 68.49606 20828 ft 381 kts 270°
2026-04-26 15:42 38.54304 68.46189 21209 ft 383 kts 270°
2026-04-26 15:42 38.54305 68.42810 21585 ft 384 kts 270°
2026-04-26 15:42 38.54309 68.39416 21957 ft 386 kts 270°
2026-04-26 15:43 38.54314 68.36010 22326 ft 387 kts 270°
2026-04-26 15:43 38.54319 68.32578 22692 ft 388 kts 270°
2026-04-26 15:43 38.54329 68.25641 23422 ft 392 kts 270°
2026-04-26 15:44 38.54332 68.22150 23784 ft 393 kts 270°
2026-04-26 15:44 38.54335 68.15169 24546 ft 394 kts 270°
2026-04-26 15:44 38.54334 68.11669 24885 ft 395 kts 270°
2026-04-26 15:45 38.54446 68.04683 25545 ft 397 kts 272°
2026-04-26 15:45 38.54612 68.01152 25868 ft 397 kts 273°
2026-04-26 15:46 38.54951 67.94123 26495 ft 398 kts 273°
2026-04-26 15:46 38.55121 67.90565 26792 ft 399 kts 272°
2026-04-26 15:46 38.55288 67.87035 27069 ft 400 kts 272°
2026-04-26 15:46 38.55398 67.84687 27259 ft 401 kts 272°
2026-04-26 15:47 38.55616 67.79984 27627 ft 402 kts 272°
2026-04-26 15:47 38.55944 67.72846 28147 ft 404 kts 272°
2026-04-26 15:48 38.56274 67.65612 28334 ft 413 kts 272°
2026-04-26 15:48 38.56440 67.61932 28457 ft 416 kts 272°
2026-04-26 15:48 38.56606 67.58227 28693 ft 416 kts 272°
2026-04-26 15:48 38.56768 67.54598 28999 ft 415 kts 272°
2026-04-26 15:49 38.56931 67.50925 29292 ft 414 kts 272°
2026-04-26 15:49 38.57094 67.47240 29597 ft 412 kts 272°
2026-04-26 15:49 38.57252 67.43628 29905 ft 410 kts 272°
2026-04-26 15:49 38.57409 67.39990 30220 ft 409 kts 272°
2026-04-26 15:50 38.57565 67.36375 30480 ft 408 kts 272°
2026-04-26 15:50 38.57718 67.32787 30755 ft 407 kts 271°
2026-04-26 15:50 38.57869 67.29204 31035 ft 405 kts 271°
2026-04-26 15:50 38.58019 67.25631 31329 ft 404 kts 271°
2026-04-26 15:51 38.58170 67.22027 31633 ft 402 kts 271°
2026-04-26 15:51 38.58316 67.18508 31913 ft 400 kts 271°
2026-04-26 15:51 38.58461 67.14940 32145 ft 400 kts 271°
2026-04-26 15:51 38.58606 67.11417 32388 ft 399 kts 271°
2026-04-26 15:52 38.58749 67.07893 32634 ft 398 kts 271°
2026-04-26 15:52 38.58889 67.04370 32821 ft 398 kts 271°
2026-04-26 15:52 38.59031 67.00825 32974 ft 399 kts 271°
2026-04-26 15:52 38.59124 66.98466 33084 ft 399 kts 271°
2026-04-26 15:53 38.59308 66.93778 33307 ft 399 kts 271°
2026-04-26 15:53 38.59446 66.90257 33455 ft 400 kts 271°
2026-04-26 15:53 38.59581 66.86708 33606 ft 400 kts 271°
2026-04-26 15:53 38.59717 66.83161 33751 ft 401 kts 271°
2026-04-26 15:54 38.59851 66.79614 33886 ft 401 kts 271°
2026-04-26 15:54 38.59985 66.76064 34041 ft 401 kts 271°
2026-04-26 15:54 38.60120 66.72499 34189 ft 401 kts 271°
2026-04-26 15:55 38.60384 66.65362 34205 ft 403 kts 271°
2026-04-26 15:55 38.60643 66.58244 34177 ft 404 kts 271°
2026-04-26 15:56 38.60901 66.51079 34141 ft 404 kts 271°
2026-04-26 15:56 38.61152 66.43900 34112 ft 405 kts 271°
2026-04-26 15:57 38.61399 66.36759 34099 ft 405 kts 271°
2026-04-26 15:57 38.61693 66.29588 34092 ft 406 kts 273°
2026-04-26 15:58 38.62455 66.22441 34082 ft 407 kts 278°
2026-04-26 15:58 38.63781 66.15403 34078 ft 409 kts 283°
2026-04-26 15:59 38.65362 66.08451 34068 ft 409 kts 283°
2026-04-26 15:59 38.66949 66.01492 34069 ft 411 kts 283°
2026-04-26 16:00 38.68541 65.94506 34061 ft 411 kts 284°
2026-04-26 16:00 38.70133 65.87495 34058 ft 410 kts 284°
2026-04-26 16:01 38.71711 65.80530 34058 ft 410 kts 284°
2026-04-26 16:01 38.73300 65.73492 34042 ft 410 kts 284°
2026-04-26 16:02 38.74868 65.66519 34038 ft 410 kts 284°
2026-04-26 16:02 38.76437 65.59531 34059 ft 410 kts 284°
2026-04-26 16:03 38.78011 65.52489 34060 ft 411 kts 284°
2026-04-26 16:03 38.79575 65.45480 34055 ft 410 kts 284°
2026-04-26 16:04 38.81136 65.38449 34055 ft 410 kts 284°
2026-04-26 16:04 38.82685 65.31448 34062 ft 410 kts 283°
2026-04-26 16:05 38.84226 65.24446 34061 ft 410 kts 284°
2026-04-26 16:05 38.85775 65.17412 34054 ft 409 kts 284°
2026-04-26 16:06 38.87320 65.10378 34054 ft 410 kts 283°
2026-04-26 16:06 38.88853 65.03361 34059 ft 409 kts 284°
2026-04-26 16:07 38.90375 64.96371 34052 ft 409 kts 284°
2026-04-26 16:07 38.91901 64.89343 34058 ft 409 kts 284°
2026-04-26 16:08 38.93424 64.82306 34062 ft 410 kts 284°
2026-04-26 16:08 38.94946 64.75250 34063 ft 410 kts 284°
2026-04-26 16:09 38.96460 64.68223 34065 ft 411 kts 284°
2026-04-26 16:09 38.97969 64.61190 34067 ft 411 kts 284°
2026-04-26 16:10 38.99484 64.54100 34055 ft 412 kts 284°
2026-04-26 16:10 39.00996 64.47012 34071 ft 412 kts 283°
2026-04-26 16:11 39.02493 64.39954 34074 ft 411 kts 284°
2026-04-26 16:11 39.03986 64.32894 34108 ft 411 kts 283°
2026-04-26 16:12 39.05476 64.25818 34082 ft 410 kts 283°
2026-04-26 16:12 39.07701 64.15224 34069 ft 410 kts 283°
2026-04-26 16:13 39.09277 64.08203 34079 ft 410 kts 284°
2026-04-26 16:13 39.10909 64.01185 34086 ft 411 kts 284°
2026-04-26 16:14 39.12561 63.94114 34092 ft 413 kts 284°
2026-04-26 16:15 39.15002 63.83499 34104 ft 413 kts 284°
2026-04-26 16:15 39.16608 63.76443 34102 ft 412 kts 284°
2026-04-26 16:16 39.19003 63.65861 34106 ft 411 kts 284°
2026-04-26 16:16 39.20597 63.58806 34108 ft 412 kts 284°
2026-04-26 16:17 39.22185 63.51740 34108 ft 412 kts 284°
2026-04-26 16:17 39.23777 63.44638 34111 ft 412 kts 284°
2026-04-26 16:18 39.26145 63.34022 34119 ft 411 kts 283°
2026-04-26 16:19 39.28493 63.23418 34123 ft 411 kts 283°
2026-04-26 16:20 39.30844 63.12759 34128 ft 411 kts 283°
2026-04-26 16:20 39.33173 63.02173 34131 ft 411 kts 283°
2026-04-26 16:21 39.34732 62.95073 34117 ft 411 kts 283°
2026-04-26 16:21 39.36277 62.88003 34123 ft 412 kts 282°
2026-04-26 16:22 39.37828 62.80880 34125 ft 411 kts 282°
2026-04-26 16:22 39.39362 62.73806 34139 ft 411 kts 282°
2026-04-26 16:23 39.40899 62.66695 34138 ft 411 kts 282°
2026-04-26 16:23 39.42430 62.59599 34140 ft 411 kts 282°
2026-04-26 16:24 39.43956 62.52491 34145 ft 410 kts 282°
2026-04-26 16:24 39.45477 62.45393 34150 ft 410 kts 282°
2026-04-26 16:25 39.46986 62.38320 34139 ft 411 kts 282°
2026-04-26 16:25 39.48498 62.31205 34148 ft 411 kts 281°
2026-04-26 16:26 39.50001 62.24091 34154 ft 411 kts 282°
2026-04-26 16:26 39.51502 62.16985 34173 ft 411 kts 282°
2026-04-26 16:27 39.53002 62.09859 34142 ft 411 kts 282°
2026-04-26 16:27 39.54504 62.02702 34151 ft 412 kts 282°
2026-04-26 16:28 39.56000 61.95557 34156 ft 412 kts 282°
2026-04-26 16:28 39.57488 61.88415 34158 ft 412 kts 282°
2026-04-26 16:29 39.58979 61.81245 34157 ft 412 kts 282°
2026-04-26 16:29 39.60457 61.74110 34156 ft 412 kts 282°
2026-04-26 16:30 39.61931 61.66971 34159 ft 412 kts 282°
2026-04-26 16:30 39.63400 61.59834 34159 ft 412 kts 282°
2026-04-26 16:31 39.64867 61.52676 34156 ft 411 kts 282°
2026-04-26 16:31 39.66331 61.45519 34156 ft 412 kts 282°
2026-04-26 16:32 39.67556 61.39501 34157 ft 413 kts 282°
2026-04-26 16:32 39.69250 61.31153 34156 ft 412 kts 281°
2026-04-26 16:33 39.70705 61.23930 34156 ft 413 kts 281°
2026-04-26 16:33 39.72147 61.16768 34154 ft 413 kts 281°
2026-04-26 16:34 39.73591 61.09578 34156 ft 412 kts 281°
2026-04-26 16:34 39.75031 61.02381 34156 ft 412 kts 281°
2026-04-26 16:35 39.76460 60.95215 34155 ft 412 kts 281°
2026-04-26 16:35 39.77893 60.88009 34153 ft 412 kts 281°
2026-04-26 16:36 39.79314 60.80839 34155 ft 413 kts 281°
2026-04-26 16:36 39.80736 60.73627 34153 ft 413 kts 281°
2026-04-26 16:37 39.82158 60.66398 34155 ft 414 kts 281°
2026-04-26 16:37 39.83576 60.59166 34157 ft 414 kts 281°
2026-04-26 16:38 39.84997 60.51885 34156 ft 414 kts 281°
2026-04-26 16:38 39.86403 60.44652 34156 ft 415 kts 281°
2026-04-26 16:39 39.87811 60.37389 34158 ft 415 kts 281°
2026-04-26 16:39 39.88959 60.30078 34157 ft 413 kts 276°
2026-04-26 16:40 39.89516 60.22675 34155 ft 411 kts 270°
2026-04-26 16:40 39.89630 60.15280 34154 ft 411 kts 269°
2026-04-26 16:41 39.89703 60.07835 34154 ft 411 kts 269°
2026-04-26 16:41 39.89771 60.00447 34154 ft 411 kts 269°
2026-04-26 16:42 39.89836 59.92983 34157 ft 412 kts 269°
2026-04-26 16:42 39.89894 59.85541 34160 ft 412 kts 269°
2026-04-26 16:43 39.89949 59.78150 34160 ft 412 kts 268°
2026-04-26 16:43 39.89998 59.70705 34156 ft 413 kts 269°
2026-04-26 16:44 39.90044 59.63232 34159 ft 413 kts 269°
2026-04-26 16:44 39.90084 59.55769 34154 ft 413 kts 269°
2026-04-26 16:45 39.90122 59.48309 34157 ft 413 kts 269°
2026-04-26 16:45 39.90153 59.40849 34157 ft 413 kts 269°
2026-04-26 16:46 39.90174 59.33429 34156 ft 413 kts 268°
2026-04-26 16:46 39.90176 59.25956 34159 ft 412 kts 268°
2026-04-26 16:47 39.90176 59.18518 34159 ft 413 kts 268°
2026-04-26 16:47 39.90171 59.11041 34158 ft 413 kts 268°
2026-04-26 16:48 39.90154 59.03648 34155 ft 411 kts 268°
2026-04-26 16:48 39.90125 58.96196 34151 ft 412 kts 268°
2026-04-26 16:49 39.90090 58.88771 34150 ft 413 kts 268°
2026-04-26 16:49 39.90052 58.81276 34148 ft 413 kts 268°
2026-04-26 16:50 39.90008 58.73815 34144 ft 413 kts 268°
2026-04-26 16:50 39.89961 58.66356 34146 ft 414 kts 268°
2026-04-26 16:51 39.89910 58.58889 34141 ft 413 kts 268°
2026-04-26 16:51 39.89855 58.51471 34142 ft 414 kts 268°
2026-04-26 16:52 39.89805 58.45255 34137 ft 413 kts 268°
2026-04-26 16:52 39.89729 58.36538 34133 ft 413 kts 268°
2026-04-26 16:53 39.89659 58.29093 34139 ft 413 kts 268°
2026-04-26 16:53 39.89584 58.21641 34133 ft 413 kts 268°
2026-04-26 16:54 39.89507 58.14142 34133 ft 414 kts 268°
2026-04-26 16:54 39.89446 58.06717 34135 ft 414 kts 268°
2026-04-26 16:55 39.89384 57.99214 34128 ft 413 kts 268°
2026-04-26 16:55 39.89319 57.91788 34132 ft 413 kts 268°
2026-04-26 16:56 39.89207 57.80632 34128 ft 413 kts 268°
2026-04-26 16:57 39.89127 57.73152 34126 ft 413 kts 268°
2026-04-26 16:57 39.88998 57.61977 34114 ft 413 kts 268°
2026-04-26 16:58 39.88920 57.55775 34113 ft 413 kts 268°
2026-04-26 16:59 39.88759 57.43361 34116 ft 413 kts 268°
2026-04-26 17:00 39.88546 57.28438 34111 ft 414 kts 267°
2026-04-26 17:00 39.88374 57.17283 34110 ft 412 kts 267°
2026-04-26 17:01 39.88253 57.09825 34111 ft 411 kts 267°
2026-04-26 17:01 39.88129 57.02427 34102 ft 412 kts 267°
2026-04-26 17:02 39.88000 56.94962 34107 ft 411 kts 267°
2026-04-26 17:02 39.87866 56.87552 34101 ft 412 kts 266°
2026-04-26 17:03 39.87727 56.80099 34098 ft 413 kts 266°
2026-04-26 17:03 39.87581 56.72652 34096 ft 413 kts 266°
2026-04-26 17:04 39.87432 56.65225 34096 ft 413 kts 267°
2026-04-26 17:04 39.87278 56.57775 34093 ft 413 kts 267°
2026-04-26 17:05 39.87118 56.50292 34090 ft 413 kts 267°
2026-04-26 17:05 39.86957 56.42871 34094 ft 412 kts 267°
2026-04-26 17:06 39.86790 56.35439 34094 ft 413 kts 267°
2026-04-26 17:06 39.86617 56.27999 34093 ft 413 kts 266°
2026-04-26 17:07 39.86440 56.20528 34090 ft 414 kts 266°
2026-04-26 17:07 39.86262 56.13070 34085 ft 415 kts 266°
2026-04-26 17:08 39.86080 56.05615 34085 ft 415 kts 266°
2026-04-26 17:08 39.85894 55.98093 34088 ft 414 kts 266°
2026-04-26 17:09 39.85736 55.91859 34083 ft 414 kts 266°
2026-04-26 17:09 39.85509 55.83203 34075 ft 414 kts 266°
2026-04-26 17:10 39.85309 55.75742 34087 ft 413 kts 266°
2026-04-26 17:10 39.85104 55.68285 34081 ft 414 kts 266°
2026-04-26 17:11 39.84894 55.60849 34077 ft 414 kts 266°
2026-04-26 17:11 39.84678 55.53357 34082 ft 415 kts 266°
2026-04-26 17:12 39.84347 55.42125 34066 ft 416 kts 266°
2026-04-26 17:13 39.84005 55.30860 34074 ft 416 kts 266°
2026-04-26 17:14 39.83654 55.19654 34073 ft 415 kts 266°
2026-04-26 17:14 39.83290 55.08467 34061 ft 415 kts 266°
2026-04-26 17:15 39.82949 54.97219 34065 ft 415 kts 266°
2026-04-26 17:16 39.82736 54.89746 34063 ft 415 kts 266°
2026-04-26 17:16 39.82669 54.82210 34070 ft 416 kts 270°
2026-04-26 17:17 39.83167 54.74726 34070 ft 419 kts 276°
2026-04-26 17:17 39.84265 54.67292 34069 ft 420 kts 282°
2026-04-26 17:18 39.85788 54.60009 34079 ft 420 kts 283°
2026-04-26 17:18 39.87356 54.52664 34075 ft 421 kts 283°
2026-04-26 17:19 39.89683 54.41696 34076 ft 420 kts 283°
2026-04-26 17:19 39.91211 54.34393 34076 ft 419 kts 282°
2026-04-26 17:20 39.92481 54.28274 34072 ft 419 kts 282°
2026-04-26 17:20 39.94237 54.19789 34071 ft 419 kts 282°
2026-04-26 17:21 39.95749 54.12468 34073 ft 419 kts 282°
2026-04-26 17:21 39.97259 54.05139 34063 ft 420 kts 282°
2026-04-26 17:22 39.98769 53.97793 34064 ft 420 kts 282°
2026-04-26 17:22 40.00275 53.90444 34065 ft 421 kts 282°
2026-04-26 17:23 40.01773 53.83101 34060 ft 420 kts 282°
2026-04-26 17:23 40.03265 53.75756 34059 ft 420 kts 282°
2026-04-26 17:24 40.04760 53.68367 34058 ft 420 kts 282°
2026-04-26 17:24 40.06231 53.61077 34059 ft 418 kts 282°
2026-04-26 17:25 40.07699 53.53770 34058 ft 417 kts 282°
2026-04-26 17:25 40.09171 53.46433 34061 ft 417 kts 282°
2026-04-26 17:26 40.10631 53.39151 34062 ft 417 kts 282°
2026-04-26 17:26 40.12102 53.31882 34065 ft 417 kts 281°
2026-04-26 17:27 40.13564 53.24550 34070 ft 417 kts 281°
2026-04-26 17:27 40.15017 53.17193 34069 ft 417 kts 281°
2026-04-26 17:28 40.16452 53.09896 34074 ft 416 kts 281°
2026-04-26 17:28 40.17887 53.02575 34074 ft 417 kts 281°
2026-04-26 17:29 40.19075 52.96493 34074 ft 417 kts 281°
2026-04-26 17:29 40.20735 52.87962 34067 ft 416 kts 281°
2026-04-26 17:30 40.22157 52.80616 34065 ft 416 kts 281°
2026-04-26 17:30 40.23570 52.73286 34062 ft 416 kts 281°
2026-04-26 17:31 40.24966 52.66010 34064 ft 415 kts 281°
2026-04-26 17:31 40.26368 52.58688 34058 ft 415 kts 281°
2026-04-26 17:32 40.27780 52.51365 33873 ft 413 kts 281°
2026-04-26 17:32 40.28475 52.47745 33596 ft 413 kts 281°
2026-04-26 17:32 40.29171 52.44114 33325 ft 411 kts 281°
2026-04-26 17:33 40.29857 52.40519 33046 ft 409 kts 281°
2026-04-26 17:33 40.30542 52.36920 32766 ft 408 kts 281°
2026-04-26 17:33 40.31223 52.33329 32496 ft 408 kts 281°
2026-04-26 17:34 40.32583 52.26112 31948 ft 409 kts 281°
2026-04-26 17:34 40.33264 52.22494 31675 ft 410 kts 281°
2026-04-26 17:34 40.33946 52.18871 31396 ft 411 kts 281°
2026-04-26 17:34 40.34621 52.15281 31032 ft 412 kts 281°
2026-04-26 17:35 40.35308 52.11613 30559 ft 413 kts 281°
2026-04-26 17:35 40.35990 52.07965 29983 ft 413 kts 281°
2026-04-26 17:35 40.36665 52.04352 29345 ft 414 kts 281°
2026-04-26 17:35 40.37345 52.00702 28658 ft 414 kts 281°
2026-04-26 17:36 40.38030 51.97022 27935 ft 414 kts 281°
2026-04-26 17:36 40.38702 51.93409 27408 ft 409 kts 282°
2026-04-26 17:36 40.39369 51.89824 26939 ft 404 kts 282°
2026-04-26 17:36 40.40027 51.86270 26469 ft 399 kts 282°
2026-04-26 17:37 40.40672 51.82780 26003 ft 394 kts 282°
2026-04-26 17:37 40.41317 51.79283 25536 ft 390 kts 282°
2026-04-26 17:37 40.41946 51.75865 25074 ft 386 kts 282°
2026-04-26 17:38 40.43181 51.69133 24177 ft 379 kts 282°
2026-04-26 17:38 40.43794 51.65780 23713 ft 374 kts 282°
2026-04-26 17:38 40.44394 51.62488 23287 ft 373 kts 282°
2026-04-26 17:38 40.44990 51.59213 22852 ft 372 kts 282°
2026-04-26 17:39 40.45587 51.55930 22410 ft 370 kts 282°
2026-04-26 17:39 40.46188 51.52611 22120 ft 382 kts 282°
2026-04-26 17:39 40.46709 51.49143 22064 ft 391 kts 278°
2026-04-26 17:39 40.47092 51.45615 22057 ft 393 kts 277°
2026-04-26 17:40 40.47433 51.42061 22055 ft 393 kts 276°
2026-04-26 17:40 40.47655 51.39698 22055 ft 394 kts 276°
2026-04-26 17:40 40.48099 51.34952 22052 ft 394 kts 276°
2026-04-26 17:40 40.48428 51.31409 22027 ft 391 kts 276°
2026-04-26 17:41 40.48754 51.27895 21695 ft 386 kts 276°
2026-04-26 17:41 40.49077 51.24399 21077 ft 386 kts 276°
2026-04-26 17:41 40.49397 51.20927 20477 ft 385 kts 276°
2026-04-26 17:41 40.49715 51.17457 19926 ft 383 kts 276°
2026-04-26 17:42 40.50032 51.14011 19383 ft 380 kts 276°
2026-04-26 17:42 40.50344 51.10592 18846 ft 378 kts 276°
2026-04-26 17:42 40.50655 51.07176 18313 ft 376 kts 276°
2026-04-26 17:42 40.50965 51.03759 17793 ft 374 kts 276°
2026-04-26 17:43 40.51267 51.00429 17278 ft 372 kts 276°
2026-04-26 17:43 40.51574 50.97032 16758 ft 370 kts 276°
2026-04-26 17:43 40.51922 50.93761 16066 ft 363 kts 279°
2026-04-26 17:43 40.52441 50.90560 15170 ft 360 kts 283°
2026-04-26 17:44 40.53127 50.87432 14560 ft 359 kts 285°
2026-04-26 17:44 40.53867 50.84298 14139 ft 357 kts 285°
2026-04-26 17:44 40.54598 50.81216 13658 ft 355 kts 285°
2026-04-26 17:44 40.55327 50.78135 13105 ft 354 kts 285°
2026-04-26 17:45 40.56054 50.75056 12584 ft 352 kts 285°
2026-04-26 17:45 40.56778 50.71975 12075 ft 350 kts 285°
2026-04-26 17:45 40.57485 50.68963 11573 ft 348 kts 285°
2026-04-26 17:45 40.58192 50.65942 11086 ft 340 kts 285°
2026-04-26 17:46 40.58871 50.63044 10691 ft 322 kts 285°
2026-04-26 17:46 40.59511 50.60316 10338 ft 304 kts 284°
2026-04-26 17:46 40.60113 50.57741 9935 ft 290 kts 284°
2026-04-26 17:46 40.60697 50.55239 9325 ft 286 kts 284°
2026-04-26 17:47 40.61280 50.52741 8665 ft 284 kts 284°
2026-04-26 17:47 40.61658 50.51123 8238 ft 282 kts 284°
2026-04-26 17:47 40.62419 50.47857 7350 ft 281 kts 284°
2026-04-26 17:47 40.62987 50.45413 6682 ft 280 kts 283°
2026-04-26 17:48 40.63549 50.42992 6027 ft 278 kts 283°
2026-04-26 17:48 40.64108 50.40581 5399 ft 277 kts 283°
2026-04-26 17:48 40.64672 50.38149 4959 ft 276 kts 283°
2026-04-26 17:48 40.65227 50.35748 4591 ft 274 kts 283°
2026-04-26 17:49 40.65780 50.33351 4215 ft 273 kts 282°
2026-04-26 17:49 40.66324 50.30987 4013 ft 270 kts 282°
2026-04-26 17:49 40.66867 50.28625 4001 ft 271 kts 282°
2026-04-26 17:49 40.67141 50.26235 3908 ft 260 kts 261°
2026-04-26 17:50 40.66805 50.23946 3579 ft 255 kts 250°
2026-04-26 17:50 40.66333 50.21706 3175 ft 255 kts 250°
2026-04-26 17:50 40.65886 50.19433 2909 ft 250 kts 252°
2026-04-26 17:50 40.65504 50.17244 2742 ft 242 kts 253°
2026-04-26 17:51 40.65160 50.15115 2567 ft 231 kts 253°
2026-04-26 17:51 40.64852 50.13112 2278 ft 217 kts 253°
2026-04-26 17:51 40.64566 50.11242 2046 ft 204 kts 253°
2026-04-26 17:51 40.64305 50.09498 1988 ft 183 kts 253°
2026-04-26 17:52 40.63968 50.07931 2059 ft 174 kts 237°
2026-04-26 17:52 40.63182 50.06778 2018 ft 167 kts 209°
2026-04-26 17:52 40.62098 50.06284 2009 ft 165 kts 189°
2026-04-26 17:52 40.60963 50.06142 1999 ft 165 kts 182°
2026-04-26 17:53 40.59808 50.06111 1996 ft 165 kts 180°
2026-04-26 17:53 40.58651 50.06122 1970 ft 162 kts 180°
2026-04-26 17:53 40.57584 50.06141 1777 ft 147 kts 180°
2026-04-26 17:54 40.55618 50.06174 1403 ft 139 kts 180°
2026-04-26 17:54 40.54652 50.06189 1226 ft 139 kts 180°
2026-04-26 17:54 40.53680 50.06203 1044 ft 138 kts 180°
2026-04-26 17:54 40.52715 50.06213 843 ft 138 kts 180°
2026-04-26 17:55 40.51765 50.06239 651 ft 137 kts 179°
2026-04-26 17:55 40.50803 50.06258 476 ft 137 kts 179°
2026-04-26 17:55 40.49861 50.06270 291 ft 136 kts 179°
2026-04-26 17:55 40.48912 50.06272 111 ft 136 kts 179°
2026-04-26 17:56 40.47977 50.06292 6 ft 125 kts 179°
2026-04-26 17:56 40.46877 50.06308 0 ft 33 kts 179°
2026-04-26 17:57 40.46444 50.06303 -5 ft 28 kts 191°
2026-04-26 17:57 40.46288 50.06224 -8 ft 18 kts 210°
2026-04-26 17:57 40.46190 50.06147 -10 ft 8 kts 211°
2026-04-26 17:57 40.46187 50.06145 -10 ft 0 kts 211°
2026-04-26 17:59 40.46182 50.06140 -10 ft 1 kts 211°
2026-04-26 17:59 40.46174 50.06134 -10 ft 1 kts 211°
2026-04-26 17:59 40.46167 50.06128 -9 ft 1 kts 211°
2026-04-26 17:59 40.46160 50.06123 -9 ft 1 kts 210°
2026-04-26 18:00 40.46128 50.06109 -9 ft 6 kts 194°
2026-04-26 18:00 40.46083 50.06098 -9 ft 6 kts 185°
2026-04-26 18:00 40.46021 50.06098 -10 ft 11 kts 179°
2026-04-26 18:00 40.45941 50.06101 -10 ft 11 kts 179°
2026-04-26 18:01 40.45866 50.06081 -10 ft 11 kts 218°
2026-04-26 18:01 40.45849 50.06026 -10 ft 4 kts 271°
2026-04-26 18:01 40.45867 50.05986 -10 ft 5 kts 318°
2026-04-26 18:01 40.45897 50.05953 -9 ft 5 kts 317°
2026-04-26 18:02 40.45914 50.05912 -9 ft 4 kts 282°
2026-04-26 18:02 40.45915 50.05883 -9 ft 4 kts 270°
2026-04-26 18:02 40.45915 50.05848 -9 ft 0 kts 269°